Location: Forst
(46.9333°N, 15.4333°E)
Time: 20:32:13
(UTC+00:00)

Tiangong - Pass Details

Date: 04 October 2021
Orbit: 382 x 385 km, 41.5° (Epoch: 15 October)

Event Time Altitude Azimuth Distance (km) Brightness Sun altitude
Exits shadow 04:03:59 14° 238° (WSW) 1,182 3.0 -10.6°
Maximum altitude 04:05:45 22° 195° (SSW) 904 2.7 -10.3°
Drops below altitude 10° 04:08:15 10° 142° (SE) 1,396 4.4 -9.8°
Sets 04:10:36 0° 126° (SE) 2,246 5.8 -9.4°
